TimeMST,TemperatureF,Dew PointF,Humidity,Sea Level PressureIn,VisibilityMPH,Wind Direction,Wind SpeedMPH,Gust SpeedMPH,PrecipitationIn,Events,Conditions,WindDirDegrees,DateUTC
12:53 AM,16.0,12.0,84,30.19,10.0,SE,4.6,-,N/A,,Clear,130,2012-11-13 07:53:00
1:53 AM,14.0,10.9,88,30.20,10.0,ESE,5.8,-,N/A,,Partly Cloudy,110,2012-11-13 08:53:00
2:53 AM,16.0,12.0,84,30.19,10.0,SE,3.5,-,N/A,,Scattered Clouds,140,2012-11-13 09:53:00
3:53 AM,14.0,10.9,88,30.19,10.0,Calm,Calm,-,N/A,,Partly Cloudy,0,2012-11-13 10:53:00
4:53 AM,14.0,10.9,88,30.20,10.0,SSE,3.5,-,N/A,,Clear,160,2012-11-13 11:53:00
5:47 AM,15.8,14.0,93,30.08,1.0,Calm,Calm,-,N/A,,Partly Cloudy,0,2012-11-13 12:47:00
5:53 AM,12.9,12.0,96,30.21,0.2,Calm,Calm,-,N/A,Fog,Light Freezing Fog,0,2012-11-13 12:53:00
6:05 AM,15.8,12.2,86,30.07,0.8,Calm,Calm,-,N/A,,Partly Cloudy,0,2012-11-13 13:05:00
6:10 AM,17.6,15.8,93,30.07,1.5,Calm,Calm,-,N/A,,Partly Cloudy,0,2012-11-13 13:10:00
6:13 AM,17.6,15.8,93,30.07,4.0,Calm,Calm,-,N/A,,Partly Cloudy,0,2012-11-13 13:13:00
6:53 AM,17.1,14.0,88,30.22,10.0,SW,3.5,-,N/A,,Clear,230,2012-11-13 13:53:00
7:04 AM,15.8,14.0,93,30.09,2.5,Calm,Calm,-,N/A,,Clear,0,2012-11-13 14:04:00
7:12 AM,14.0,12.2,93,30.09,8.0,Calm,Calm,-,N/A,,Clear,0,2012-11-13 14:12:00
7:32 AM,14.0,12.2,93,30.09,1.2,Calm,Calm,-,N/A,,Clear,0,2012-11-13 14:32:00
7:38 AM,15.8,14.0,93,30.09,0.2,Calm,Calm,-,N/A,Fog,Light Freezing Fog,0,2012-11-13 14:38:00
7:48 AM,17.6,15.8,93,30.09,1.5,Calm,Calm,-,N/A,,Clear,0,2012-11-13 14:48:00
7:50 AM,17.6,15.8,93,30.09,4.0,Calm,Calm,-,N/A,,Clear,0,2012-11-13 14:50:00
7:53 AM,18.0,16.0,92,30.22,9.0,Calm,Calm,-,N/A,,Clear,0,2012-11-13 14:53:00
8:53 AM,18.0,17.1,96,30.23,10.0,WSW,4.6,-,N/A,,Clear,240,2012-11-13 15:53:00
9:53 AM,21.9,19.0,89,30.23,10.0,Calm,Calm,-,N/A,,Clear,0,2012-11-13 16:53:00
10:53 AM,25.0,19.9,81,30.22,10.0,Calm,Calm,-,N/A,,Clear,0,2012-11-13 17:53:00
11:53 AM,21.9,17.1,82,30.22,10.0,Calm,Calm,-,N/A,,Clear,0,2012-11-13 18:53:00
12:53 PM,27.0,21.9,81,30.20,10.0,Calm,Calm,-,N/A,,Clear,0,2012-11-13 19:53:00
1:53 PM,28.9,23.0,78,30.19,10.0,Calm,Calm,-,N/A,,Clear,0,2012-11-13 20:53:00
2:53 PM,30.0,24.1,79,30.19,10.0,Calm,Calm,-,N/A,,Clear,0,2012-11-13 21:53:00
3:53 PM,24.1,19.9,84,30.21,10.0,SE,5.8,-,N/A,,Clear,130,2012-11-13 22:53:00
4:53 PM,28.0,23.0,81,30.19,10.0,Calm,Calm,-,N/A,,Clear,0,2012-11-13 23:53:00
5:53 PM,27.0,25.0,92,30.19,10.0,South,3.5,-,N/A,,Clear,180,2012-11-14 00:53:00
6:53 PM,21.0,19.9,96,30.19,10.0,ESE,5.8,-,N/A,,Clear,120,2012-11-14 01:53:00
7:53 PM,21.9,19.9,92,30.18,10.0,SSE,3.5,-,N/A,,Clear,150,2012-11-14 02:53:00
8:53 PM,21.9,19.9,92,30.19,10.0,SSE,5.8,-,N/A,,Clear,150,2012-11-14 03:53:00
9:43 PM,19.4,17.6,93,30.05,1.8,ESE,6.9,-,N/A,,Clear,120,2012-11-14 04:43:00
9:53 PM,18.0,17.1,96,30.17,1.5,East,6.9,-,N/A,,Clear,100,2012-11-14 04:53:00
10:03 PM,17.6,15.8,93,30.05,3.0,ESE,8.1,-,N/A,,Clear,120,2012-11-14 05:03:00
10:53 PM,19.0,18.0,96,30.15,8.0,ESE,9.2,-,N/A,,Clear,120,2012-11-14 05:53:00
11:53 PM,18.0,17.1,96,30.16,6.0,East,6.9,-,N/A,,Clear,100,2012-11-14 06:53:00